Skip Page Navigation
NASA JPL Caltech
NASA Logo - Jet Propulsion Laboratory + View the NASA Portal
+ Center for Near-Earth Object Studies
JPL Home Earth Solar System Stars & Galaxies Technology
JPL Solar System Dynamics
BODIES ORBITS EPHEMERIDES TOOLS PHYSICAL DATA DISCOVERY FAQ SITE MAP
JPL Small-Body Database Browser
Search: [ help ]  
26510 (2000 CZ34)
Classification: Jupiter Trojan          SPK-ID: 2026510
Ephemeris | Orbit Diagram | Orbital Elements | Mission Design | Physical Parameters | Discovery Circumstances ]

[ show orbit diagram ]
Orbital Elements at Epoch 2459000.5 (2020-May-31.0) TDB
Reference: JPL 22 (heliocentric ecliptic J2000)
 Element Value Uncertainty (1-sigma)   Units 
e .08274077774734329 5.6841e-08  
a 5.287919007507646 1.0997e-07 au
q 4.850392476161503 3.6108e-07 au
i 5.470244670872684 5.6031e-06 deg
node 141.9406261416169 5.7029e-05 deg
peri 269.5958793248099 6.637e-05 deg
M 313.4373120859162 3.4601e-05 deg
tp 2459574.961808164299
(2021-Dec-26.46180816)
0.00042851 TDB
period 4441.458605670291
12.16
0.00013855
3.793e-07
d
yr
n .08105445349426373 2.5284e-09 deg/d
Q 5.725445538853788 1.1907e-07 au
  Orbit Determination Parameters
   # obs. used (total)      652  
   data-arc span      9221 days (25.25 yr)  
   first obs. used      1995-07-22  
   last obs. used      2020-10-19  
   planetary ephem.      DE431  
   SB-pert. ephem.      SB431-N16  
   condition code      0  
   norm. resid. RMS      .56239  
   source      ORB  
   producer      Otto Matic  
   solution date      2020-Nov-13 01:28:31  

Additional Information
 Earth MOID = 3.86686 au 
 Jupiter MOID = .0508008 au 
 T_jup = 2.984 
[ show covariance matrix ]

Ephemeris | Orbit Diagram | Orbital Elements | Mission Design | Physical Parameters | Discovery Circumstances ]

Physical Parameter Table
Parameter Symbol Value Units Sigma Reference Notes
absolute magnitude H 12.4   n/a MPO412373  
diameter diameter 13.716 km 0.689 urn:nasa:pds:neowise_diameters_albedos::2.0[jupiter_trojans] (http://adsabs.harvard.edu/abs/2011ApJ...742...40G)  
geometric albedo albedo 0.113   0.027 urn:nasa:pds:neowise_diameters_albedos::2.0[jupiter_trojans] (http://adsabs.harvard.edu/abs/2011ApJ...742...40G)  

26510 (2000 CZ34)          Discovered 2000-Feb-02 by LINEAR at Socorro
Reference: 20010705/Numbers.arcLast Updated: 2004-04-19

Alternate Designations
 2000 CZ34 = 1995 OA6 
Ephemeris | Orbit Diagram | Orbital Elements | Mission Design | Physical Parameters | Discovery Circumstances ]
ABOUT SSD CREDITS/AWARDS PRIVACY/COPYRIGHT GLOSSARY LINKS
FirstGov 2020-Nov-26 21:31 UT
(server date/time)  
NASA Home Page
Site Manager:   Ryan S. Park
Webmaster  Alan B. Chamberlin